Stations météo

réclame
Mon MeteoGroup
Huesca, Espagne (8094): Température de l'air & dewpoint: 10.01.2018 10:00:00 - 16.01.2018 10:00:00 (CET)Huesca, Espagne (8094): Vitesse du vent: 10.01.2018 10:00:00 - 16.01.2018 10:00:00 (CET)Huesca, Espagne (8094): Direction du vent: 10.01.2018 10:00:00 - 16.01.2018 10:00:00 (CET)Huesca, Espagne (8094): reduced air pressure: 10.01.2018 10:00:00 - 16.01.2018 10:00:00 (CET)Huesca, Espagne (8094): visibility: 10.01.2018 10:00:00 - 16.01.2018 10:00:00 (CET)Huesca, Espagne (8094): Quantités de précipitations: 10.01.2018 10:00:00 - 16.01.2018 10:00:00 (CET)
Date & Time tt [°C] td [°C] ff [km/h] ff [knt] dd ppp [hPa] vv [km] rr [mm]
16.01.2018 10:00:00 5,5 3,7 8 4 W 1023,9 30 -
16.01.2018 09:00:00 4,6 2,9 9 5 WNW 1024,0 - 0,0
16.01.2018 08:00:00 4,1 2,4 8 4 W 1023,9 - 0,0
16.01.2018 07:00:00 4,3 2,3 8 4 W 1023,3 - -
16.01.2018 06:00:00 4,7 2,2 8 4 WSW 1023,4 - 0,0
16.01.2018 05:00:00 4,4 2,3 8 4 W 1023,6 - 0,0
16.01.2018 04:00:00 4,2 2,7 4 2 WSW 1023,9 - -
16.01.2018 03:00:00 4,7 3,2 8 4 WSW 1024,2 - 0,0
16.01.2018 02:00:00 5,2 2,7 5 3 W 1024,3 - 0,0
16.01.2018 01:00:00 5,0 2,9 8 4 W 1025,0 - -
16.01.2018 00:00:00 5,3 2,6 9 5 W 1025,2 - 0,0
15.01.2018 23:00:00 4,2 2,9 8 4 W 1025,4 - 0,0
15.01.2018 22:00:00 4,1 3,1 4 2 W 1025,2 - -
15.01.2018 21:00:00 4,5 3,0 5 3 NW 1025,4 - 0,0
15.01.2018 20:00:00 4,9 2,9 4 2 W 1025,3 - 0,0
15.01.2018 19:00:00 5,2 3,2 4 2 W 1025,1 - -
15.01.2018 18:00:00 6,5 4,2 8 4 WSW 1024,2 - 0,0
15.01.2018 17:00:00 7,2 5,0 2 1 WSW 1023,9 - 0,0
15.01.2018 16:00:00 7,1 4,9 5 3 WSW 1024,0 75 -
15.01.2018 15:00:00 7,2 4,8 5 3 W 1024,6 - 0,0
15.01.2018 14:00:00 6,2 4,0 4 2 WNW 1025,0 - 0,0
15.01.2018 13:00:00 4,6 3,1 8 4 SE 1025,8 0,8 -
15.01.2018 12:00:00 3,5 2,0 5 3 SE 1027,2 - 0,0
15.01.2018 11:00:00 3,2 2,0 8 4 ESE 1027,1 - 0,0
15.01.2018 10:00:00 2,3 1,7 4 2 ESE 1026,6 50 -
15.01.2018 09:00:00 0,0 0,0 5 3 NE 1026,2 - 0,0
15.01.2018 08:00:00 -0,5 -0,8 2 1 E 1025,6 - 0,0
15.01.2018 07:00:00 0,4 0,1 5 3 WSW 1024,7 - -
15.01.2018 06:00:00 0,3 0,0 5 3 ENE 1023,9 - 0,0
15.01.2018 05:00:00 1,1 1,0 5 3 NNW 1023,6 - 0,0
15.01.2018 04:00:00 0,5 0,1 5 3 S 1023,2 - -
15.01.2018 03:00:00 1,1 0,4 8 4 E 1023,0 - 0,0
15.01.2018 02:00:00 1,2 0,5 4 2 NE 1022,8 - 0,0
15.01.2018 01:00:00 1,9 1,3 4 2 W 1022,8 - -
15.01.2018 00:00:00 2,4 1,4 4 2 W 1022,4 - 0,0
14.01.2018 23:00:00 2,9 1,9 4 2 NW 1021,8 - 0,0
14.01.2018 22:00:00 2,9 1,9 4 2 W 1021,2 - -
14.01.2018 21:00:00 3,6 2,3 4 2 WNW 1020,6 - 0,0
14.01.2018 20:00:00 4,2 3,0 5 3 WNW 1019,5 - 0,0
14.01.2018 19:00:00 4,5 3,5 4 2 WNW 1018,7 - -
14.01.2018 18:00:00 4,8 3,6 5 3 W 1017,9 - 0,0
14.01.2018 17:00:00 5,8 3,8 8 4 W 1017,0 - 0,0
14.01.2018 16:00:00 6,7 4,5 8 4 W 1016,6 40 -
14.01.2018 15:00:00 7,0 4,1 11 6 WNW 1016,1 - 0,0
14.01.2018 14:00:00 6,3 4,3 9 5 WNW 1016,3 - 0,0
14.01.2018 13:00:00 5,3 3,8 11 6 WNW 1017,1 50 -
14.01.2018 12:00:00 4,5 3,6 8 4 WNW 1017,5 - 0,0
14.01.2018 11:00:00 3,7 3,3 8 4 WNW 1017,4 - 0,0
14.01.2018 10:00:00 2,7 2,6 8 4 WNW 1016,9 60 -
14.01.2018 09:00:00 2,1 2,1 5 3 WNW 1016,5 - 0,0
14.01.2018 08:00:00 1,8 1,8 5 3 WNW 1016,3 - 0,0
14.01.2018 07:00:00 1,8 1,8 5 3 WNW 1016,1 - -
14.01.2018 06:00:00 1,8 1,8 8 4 W 1016,2 - 0,0
14.01.2018 05:00:00 1,9 1,9 5 3 W 1016,3 - 0,4
14.01.2018 04:00:00 1,8 1,8 5 3 W 1016,3 - -
14.01.2018 03:00:00 1,8 1,7 4 2 WNW 1016,3 - 0,6
14.01.2018 02:00:00 2,1 1,7 8 4 NW 1016,2 - 0,6
14.01.2018 01:00:00 3,2 2,9 8 4 WNW 1016,6 - -
14.01.2018 00:00:00 4,2 3,8 8 4 W 1016,9 - 3,0
13.01.2018 23:00:00 4,9 4,3 4 2 WSW 1016,8 - 1,0
13.01.2018 22:00:00 6,1 3,1 8 4 ESE 1016,1 - -
13.01.2018 21:00:00 6,4 2,3 11 6 E 1016,4 - 0,0
13.01.2018 20:00:00 6,6 2,9 11 6 E 1016,2 - 0,0
13.01.2018 19:00:00 6,6 3,0 9 5 E 1016,3 - -
13.01.2018 18:00:00 6,7 3,5 11 6 E 1016,4 - 0,0
13.01.2018 17:00:00 7,2 3,1 13 7 E 1016,7 - 0,0
13.01.2018 16:00:00 7,2 3,1 22 12 E 1016,0 35 -
13.01.2018 15:00:00 7,0 2,9 15 8 ESE 1017,6 - 0,0
13.01.2018 14:00:00 6,8 2,1 18 10 ESE 1017,8 - 0,0
13.01.2018 13:00:00 6,6 1,3 18 10 E 1019,2 75 -
13.01.2018 12:00:00 6,2 0,5 16 9 ESE 1020,4 - 0,0
13.01.2018 11:00:00 4,5 -0,1 13 7 E 1021,1 - 0,0
13.01.2018 10:00:00 1,9 -1,5 9 5 ESE 1021,7 75 -
13.01.2018 09:00:00 0,9 -1,5 11 6 ESE 1021,9 - 0,0
13.01.2018 08:00:00 0,4 -1,5 9 5 E 1021,7 - 0,0
13.01.2018 07:00:00 0,4 -1,4 8 4 ESE 1022,0 - -
13.01.2018 06:00:00 0,5 -0,8 13 7 ESE 1022,4 - 0,0
13.01.2018 05:00:00 1,1 -0,2 11 6 E 1022,7 - 0,0
13.01.2018 04:00:00 0,6 -0,4 9 5 E 1023,5 - -
13.01.2018 03:00:00 0,5 -0,5 9 5 E 1024,2 - 0,0
13.01.2018 02:00:00 0,8 -0,1 4 2 NNE 1024,0 - 0,0
13.01.2018 01:00:00 1,8 1,2 13 7 E 1023,8 - -
13.01.2018 00:00:00 2,6 1,7 13 7 ESE 1024,2 - 0,0
12.01.2018 23:00:00 2,9 1,4 11 6 E 1024,0 - 0,0
12.01.2018 22:00:00 2,9 1,6 11 6 E 1024,1 - -
12.01.2018 21:00:00 3,0 1,7 8 4 ENE 1024,5 - 0,0
12.01.2018 20:00:00 3,0 2,1 9 5 ENE 1024,1 - 0,0
12.01.2018 19:00:00 3,7 2,2 5 3 E 1023,4 - -
12.01.2018 18:00:00 5,7 2,7 5 3 E 1022,5 - 0,0
12.01.2018 17:00:00 8,2 3,4 11 6 SE 1021,4 - 0,0
12.01.2018 16:00:00 10,4 3,0 8 4 WNW 1020,3 60 -
12.01.2018 15:00:00 11,3 3,1 9 5 W 1020,1 - 0,0
12.01.2018 14:00:00 10,9 3,9 8 4 W 1020,7 - 0,0
12.01.2018 13:00:00 9,6 4,6 8 4 WSW 1021,6 50 -
12.01.2018 12:00:00 7,9 3,7 8 4 W 1022,6 - 0,0
12.01.2018 11:00:00 4,3 2,2 8 4 NW 1023,7 - 0,0
12.01.2018 10:00:00 2,6 1,0 5 3 NW 1023,9 50 -
12.01.2018 09:00:00 0,3 -1,1 5 3 SSE 1024,0 - 0,0
12.01.2018 08:00:00 -0,1 -2,0 5 3 SW 1023,8 - 0,0
12.01.2018 07:00:00 2,4 -2,0 8 4 NNW 1022,6 - -
12.01.2018 06:00:00 0,6 -0,4 5 3 NW 1023,1 - 0,0
12.01.2018 05:00:00 0,3 -0,4 8 4 SW 1023,0 - 0,0
12.01.2018 04:00:00 0,6 -0,1 5 3 NW 1022,9 - -
12.01.2018 03:00:00 0,4 0,3 8 4 W 1023,2 - 0,0
12.01.2018 02:00:00 0,5 0,4 8 4 W 1023,0 - 0,0
12.01.2018 01:00:00 0,8 0,4 8 4 W 1022,7 - -
12.01.2018 00:00:00 1,1 0,7 8 4 NW 1022,7 - 0,0
11.01.2018 23:00:00 1,6 0,9 8 4 W 1022,4 - 0,0
11.01.2018 22:00:00 2,3 1,1 9 5 W 1021,6 - -
11.01.2018 21:00:00 3,2 1,4 11 6 WNW 1021,0 - 0,0
11.01.2018 20:00:00 3,5 1,2 9 5 W 1021,1 - 0,0
11.01.2018 19:00:00 3,9 1,1 9 5 WNW 1020,3 - -
11.01.2018 18:00:00 4,5 1,2 11 6 W 1019,2 - 0,0
11.01.2018 17:00:00 5,3 2,3 15 8 W 1018,6 - 0,0
11.01.2018 16:00:00 6,4 1,5 15 8 WNW 1017,8 60 -
11.01.2018 15:00:00 7,4 1,5 13 7 WNW 1017,4 - 0,0
11.01.2018 14:00:00 8,1 1,5 13 7 WNW 1017,1 - 0,0
11.01.2018 13:00:00 7,8 2,0 13 7 WNW 1017,3 75 -
11.01.2018 12:00:00 6,3 2,0 11 6 WNW 1017,8 - 0,0
11.01.2018 11:00:00 2,3 1,0 8 4 W 1018,8 - 0,0
11.01.2018 10:00:00 2,1 0,8 9 5 W 1018,6 75 -
11.01.2018 09:00:00 1,9 0,4 8 4 WNW 1018,0 - 0,0
11.01.2018 08:00:00 0,8 -0,2 8 4 WSW 1017,8 - 0,0
11.01.2018 07:00:00 1,1 -0,1 8 4 W 1017,6 - -
11.01.2018 06:00:00 0,6 0,0 5 3 NNW 1017,4 - 0,0
11.01.2018 05:00:00 0,8 0,4 4 2 NW 1017,6 - 0,0
11.01.2018 04:00:00 1,6 0,4 9 5 W 1017,5 - -
11.01.2018 03:00:00 2,2 0,7 11 6 W 1017,0 - 0,0
11.01.2018 02:00:00 3,2 0,9 13 7 WNW 1016,5 - 0,0
11.01.2018 01:00:00 3,6 1,5 11 6 W 1016,7 - -
11.01.2018 00:00:00 4,5 1,7 9 5 WNW 1016,1 - 0,0
10.01.2018 23:00:00 4,3 3,7 8 4 W 1015,9 - 0,0
10.01.2018 22:00:00 5,1 4,2 4 2 W 1015,0 - -
10.01.2018 21:00:00 5,6 4,7 4 2 WNW 1015,1 - 0,0
10.01.2018 20:00:00 5,9 4,5 5 3 N 1015,4 - 0,4
10.01.2018 19:00:00 6,4 3,9 4 2 WNW 1015,4 - -
10.01.2018 18:00:00 6,8 3,8 4 2 W 1015,3 - 0,0
10.01.2018 17:00:00 7,3 3,7 5 3 WNW 1015,2 - 0,0
10.01.2018 16:00:00 8,1 3,7 8 4 WNW 1015,3 50 -
10.01.2018 15:00:00 8,7 3,7 11 6 W 1015,1 - 0,0
10.01.2018 14:00:00 8,9 4,5 8 4 W 1014,9 - 0,0
10.01.2018 13:00:00 7,5 5,0 5 3 WSW 1016,2 50 -
10.01.2018 12:00:00 6,1 3,8 5 3 WSW 1016,9 - 0,0
10.01.2018 11:00:00 4,4 2,7 4 2 W 1017,8 - 0,0
10.01.2018 10:00:00 3,0 2,3 5 3 W 1017,9 35 -

tt = Température de l'air
td = dewpoint
ff = Vitesse du vent
dd = Direction du vent
ppp = reduced air pressure
vv = visibility
rr = Quantités de précipitations

stations d'obs. à proximité